Weather History for Bennington, VT

Change the Weather History Date:

Wednesday, June 19, 2013

  Actual Average Record
Temperature  
Mean Temperature 58 °F 65 °F  
Max Temperature 69 °F 76 °F 88 °F (2006)
Min Temperature 46 °F 54 °F 41 °F (1999)
Degree Days  
Heating Degree Days 7 2  
Month to date heating degree days 94 80  
Since 1 June heating degree days 94 80  
Since 1 July heating degree days 6744 7219  
Cooling Degree Days 0 2  
Month to date cooling degree days 25 29  
Year to date cooling degree days 57 43  
Since 1 June cooling degree days 25 29  
Growing Degree Days 8 (Base 50)    
Moisture  
Dew Point 44 °F    
Average Humidity 63    
Maximum Humidity 100    
Minimum Humidity 25    
Precipitation  
Precipitation 0.00 in 0.15 in 0.58 in (2006)
Month to date precipitation 5.43 2.71  
Year to date precipitation 19.90 17.78  
Sea Level Pressure  
Sea Level Pressure 30.04 in    
Wind  
Wind Speed 3 mph (NW)    
Max Wind Speed 13 mph    
Max Gust Speed 18 mph    
Visibility 7 miles    
Events Fog    
T = Trace of Precipitation, MM = Missing Value Source: NWS Daily Summary

Daily Weather History Graph

Daily Weather History Graph

Search for Another Location

Airport:

Trip Planner

Search our weather history database for the weather conditions in past years. The results will help you decide how hot, cold, wet, or windy it might be!

Date:

Astronomy

Jun. 19, 2013 Rise Set
Actual Time 5:13 AM EDT 8:34 PM EDT
Civil Twilight 4:38 AM EDT 9:10 PM EDT
Nautical Twilight 3:52 AM EDT 9:56 PM EDT
Astronomical Twilight 2:56 AM EDT 10:52 PM EDT
Moon 4:20 PM EDT (6/19) 2:01 AM EDT (6/19)
Length of Visible Light 16h 31m
Length of Day
15h 20m
Waxing Gibbous, 80% of the Moon is Illuminated
Jun 19
Waxing Gibbous
Jun 23
Full
Jun 30
Last Quarter
Jul 8
New
Jul 15
First Quarter

Hourly Weather History & Observations

Time (EDT) Temp. Dew Point Humidity Pressure Visibility Wind Dir Wind Speed Gust Speed Precip Events Conditions
12:54 AM 48.0 °F 46.9 °F 96% 29.97 in 2.0 mi Calm Calm - N/A   Clear
1:03 AM 48.2 °F 46.4 °F 93% 29.97 in 10.0 mi Calm Calm - N/A   Clear
1:22 AM 48.2 °F 46.4 °F 93% 29.97 in 1.8 mi Calm Calm - N/A   Clear
1:38 AM 48.2 °F 46.4 °F 93% 29.97 in 4.0 mi Calm Calm - N/A   Clear
1:54 AM 48.0 °F 46.0 °F 93% 29.97 in 5.0 mi Calm Calm - 0.01 in   Clear
2:13 AM 46.4 °F 44.6 °F 93% 29.97 in 1.5 mi Calm Calm - N/A   Clear
2:24 AM 46.4 °F 44.6 °F 93% 29.97 in 4.0 mi Calm Calm - N/A   Clear
2:32 AM 48.2 °F 46.4 °F 93% 29.97 in 10.0 mi Calm Calm - N/A   Scattered Clouds
2:51 AM 46.4 °F 46.4 °F 100% 29.97 in 1.8 mi Calm Calm - N/A   Scattered Clouds
2:54 AM 46.0 °F 45.0 °F 96% 29.97 in 1.5 mi Calm Calm - N/A   Scattered Clouds
3:01 AM 46.4 °F 44.6 °F 93% 29.97 in 3.0 mi Calm Calm - N/A   Scattered Clouds
3:05 AM 46.4 °F 44.6 °F 93% 29.97 in 1.8 mi Calm Calm - N/A   Mostly Cloudy
3:17 AM 48.2 °F 46.4 °F 93% 29.98 in 0.2 mi Calm Calm - N/A Fog Fog
3:54 AM 48.9 °F 46.9 °F 93% 29.98 in 0.2 mi Calm Calm - N/A Fog Fog
4:54 AM 48.9 °F 46.9 °F 93% 30.00 in 0.2 mi Calm Calm - N/A Fog Fog
5:48 AM 46.4 °F 46.4 °F 100% 30.01 in 1.0 mi Calm Calm - N/A   Overcast
5:54 AM 46.9 °F 46.0 °F 97% 30.01 in 5.0 mi South 3.5 mph - N/A   Mostly Cloudy
6:05 AM 46.4 °F 46.4 °F 100% 30.01 in 8.0 mi Calm Calm - N/A   Scattered Clouds
6:54 AM 50.0 °F 48.0 °F 93% 30.03 in 10.0 mi Calm Calm - N/A   Clear
7:54 AM 55.0 °F 48.0 °F 77% 30.04 in 10.0 mi Calm Calm - N/A   Clear
8:54 AM 57.9 °F 48.0 °F 70% 30.05 in 10.0 mi Variable 4.6 mph - N/A   Clear
9:54 AM 61.0 °F 48.0 °F 62% 30.07 in 10.0 mi Calm Calm - N/A   Clear
10:54 AM 63.0 °F 46.9 °F 56% 30.07 in 10.0 mi Variable 3.5 mph - N/A   Clear
11:54 AM 64.9 °F 41.0 °F 42% 30.08 in 10.0 mi NNW 8.1 mph - N/A   Clear
12:54 PM 66.0 °F 42.1 °F 42% 30.08 in 10.0 mi NNW 6.9 mph - N/A   Clear
1:54 PM 66.9 °F 44.1 °F 44% 30.08 in 10.0 mi NNW 6.9 mph - N/A   Clear
2:54 PM 66.9 °F 39.9 °F 37% 30.09 in 10.0 mi NNW 8.1 mph - N/A   Clear
3:54 PM 68.0 °F 37.0 °F 32% 30.10 in 10.0 mi Variable 4.6 mph - N/A   Clear
4:54 PM 69.1 °F 37.9 °F 32% 30.09 in 10.0 mi NNW 5.8 mph - N/A   Clear
5:54 PM 69.1 °F 32.0 °F 25% 30.09 in 10.0 mi North 4.6 mph - N/A   Clear
6:54 PM 68.0 °F 33.1 °F 27% 30.09 in 10.0 mi Calm Calm - N/A   Clear
7:54 PM 61.0 °F 45.0 °F 56% 30.11 in 10.0 mi Calm Calm - N/A   Clear
8:54 PM 53.1 °F 46.0 °F 77% 30.12 in 10.0 mi SSE 3.5 mph - N/A   Clear
9:54 PM 51.1 °F 45.0 °F 80% 30.16 in 10.0 mi SSE 3.5 mph - N/A   Clear
10:54 PM 50.0 °F 44.1 °F 80% 30.17 in 10.0 mi Variable 4.6 mph - N/A   Clear
11:54 PM 48.0 °F 42.1 °F 80% 30.19 in 10.0 mi Calm Calm - N/A   Clear